Location: Elma
(49.8670°N, 95.9170°W)
Time: 19:31:50
(UTC-05:00)

ISS - Pass Details

Date: 30 March 2019
Orbit: 408 x 410 km, 51.6° (Epoch: 24 April)

Event Time Altitude Azimuth Distance (km) Brightness Sun altitude
Rises 22:35:32 0° 288° (WNW) 2,339 1.1 -24.6°
Reaches altitude 10° 22:37:38 10° 285° (WNW) 1,475 -0.2 -24.8°
Enters shadow 22:39:16 26° 278° (W) 837 -1.8 -25.0°
